| time (UTC) | temp F | wind direction | speed knots | gust knots | rain 1hr in | rain 24hr in | rain mn in | humidity % | barometer mb |
| 20260503220746 | 67 | 184 | 5.2 | 12.2 | 0.00 | 0.01 | 0.01 | 43 | 1004.6 |
| 20260503220246 | 67 | 236 | 6.1 | 16.5 | 0.00 | 0.01 | 0.01 | 43 | 1004.6 |
| 20260503215747 | 67 | 210 | 7.0 | 16.5 | 0.00 | 0.01 | 0.01 | 43 | 1004.6 |
| 20260503215448 | 66 | 198 | 7.8 | 15.6 | 0.00 | 0.01 | 0.01 | 44 | 1004.6 |
| 20260503215335 | 67 | 256 | 7.0 | 13.9 | 0.00 | 0.01 | 0.01 | 43 | 1004.6 |
| 20260503214247 | 66 | 233 | 7.8 | 15.6 | 0.00 | 0.01 | 0.01 | 43 | 1004.7 |
| 20260503214011 | 66 | 182 | 7.8 | 14.8 | 0.00 | 0.01 | 0.01 | 44 | 1004.7 |
| 20260503213243 | 67 | 200 | 7.8 | 13.9 | 0.00 | 0.01 | 0.01 | 43 | 1004.9 |
| 20260503212743 | 67 | 180 | 7.8 | 15.6 | 0.00 | 0.01 | 0.01 | 43 | 1004.8 |
| 20260503212245 | 66 | 258 | 7.8 | 15.6 | 0.00 | 0.01 | 0.01 | 43 | 1004.9 |
| 20260503212008 | 66 | 230 | 7.8 | 13.9 | 0.00 | 0.01 | 0.01 | 42 | 1004.8 |
| 20260503211243 | 66 | 233 | 7.8 | 13.9 | 0.00 | 0.01 | 0.01 | 43 | 1004.8 |
| 20260503210745 | 66 | 195 | 7.0 | 12.2 | 0.00 | 0.01 | 0.01 | 45 | 1004.8 |
| 20260503210243 | 66 | 199 | 7.0 | 14.8 | 0.00 | 0.01 | 0.01 | 46 | 1005.0 |
| 20260503205744 | 65 | 249 | 7.8 | 14.8 | 0.00 | 0.01 | 0.01 | 46 | 1005.2 |
| 20260503205244 | 65 | 199 | 7.8 | 14.8 | 0.00 | 0.01 | 0.01 | 47 | 1005.2 |
| 20260503204744 | 65 | 205 | 7.0 | 13.0 | 0.00 | 0.01 | 0.01 | 48 | 1005.3 |
| 20260503204504 | 65 | 201 | 7.0 | 12.2 | 0.00 | 0.01 | 0.01 | 48 | 1005.3 |
| 20260503203742 | 64 | 188 | 7.0 | 13.0 | 0.00 | 0.01 | 0.01 | 49 | 1005.5 |
| 20260503203242 | 64 | 180 | 7.0 | 13.0 | 0.01 | 0.01 | 0.01 | 50 | 1005.5 |
| 20260503202742 | 64 | 172 | 7.0 | 17.4 | 0.01 | 0.01 | 0.01 | 50 | 1005.9 |
| 20260503202243 | 64 | 231 | 7.8 | 17.4 | 0.01 | 0.01 | 0.01 | 50 | 1006.0 |
| 20260503201742 | 64 | 165 | 8.7 | 17.4 | 0.01 | 0.01 | 0.01 | 49 | 1006.0 |
| 20260503201242 | 64 | 171 | 7.8 | 17.4 | 0.01 | 0.01 | 0.01 | 49 | 1006.1 |
| 20260503201009 | 64 | 197 | 7.0 | 15.6 | 0.01 | 0.01 | 0.01 | 49 | 1006.2 |
| 20260503200243 | 64 | 213 | 7.8 | 15.6 | 0.01 | 0.01 | 0.01 | 47 | 1006.3 |
| 20260503195743 | 64 | 189 | 7.8 | 15.6 | 0.01 | 0.01 | 0.01 | 48 | 1006.2 |
| 20260503195243 | 64 | 224 | 7.8 | 15.6 | 0.01 | 0.01 | 0.01 | 47 | 1006.3 |
| 20260503194739 | 64 | 227 | 7.8 | 15.6 | 0.01 | 0.01 | 0.01 | 46 | 1006.4 |
| 20260503194239 | 64 | 218 | 7.8 | 15.6 | 0.01 | 0.01 | 0.01 | 44 | 1006.3 |
| 20260503193741 | 65 | 264 | 7.8 | 14.8 | 0.01 | 0.01 | 0.01 | 44 | 1006.3 |
| 20260503193459 | 65 | 233 | 7.8 | 16.5 | 0.00 | 0.00 | 0.00 | 44 | 1006.3 |
| 20260503192740 | 64 | 186 | 8.7 | 16.5 | 0.00 | 0.00 | 0.00 | 44 | 1006.3 |
| 20260503192242 | 65 | 208 | 8.7 | 13.9 | 0.00 | 0.00 | 0.00 | 43 | 1006.2 |
| 20260503191743 | 65 | 184 | 7.8 | 16.5 | 0.00 | 0.00 | 0.00 | 42 | 1006.2 |
| 20260503191241 | 64 | 210 | 8.7 | 16.5 | 0.00 | 0.00 | 0.00 | 43 | 1006.4 |
| 20260503191003 | 65 | 215 | 7.8 | 16.5 | 0.00 | 0.00 | 0.00 | 42 | 1006.3 |
| 20260503190241 | 65 | 275 | 7.8 | 12.2 | 0.00 | 0.00 | 0.00 | 43 | 1006.7 |
| 20260503185741 | 64 | 212 | 7.8 | 12.2 | 0.00 | 0.00 | 0.00 | 43 | 1006.5 |
| 20260503185241 | 64 | 163 | 7.0 | 11.3 | 0.00 | 0.00 | 0.00 | 44 | 1006.7 |
| 20260503184740 | 64 | 157 | 7.0 | 13.0 | 0.00 | 0.00 | 0.00 | 44 | 1006.7 |
| 20260503184239 | 64 | 173 | 7.0 | 13.0 | 0.00 | 0.00 | 0.00 | 44 | 1006.5 |
| 20260503183739 | 63 | 152 | 7.0 | 12.2 | 0.00 | 0.00 | 0.00 | 46 | 1006.9 |
| 20260503183239 | 63 | 157 | 7.0 | 11.3 | 0.00 | 0.00 | 0.00 | 45 | 1007.0 |
| 20260503182737 | 63 | 205 | 7.8 | 13.9 | 0.00 | 0.00 | 0.00 | 47 | 1007.2 |
| 20260503182718 | 62 | 217 | 8.7 | 23.5 | 0.00 | 0.00 | 0.00 | 48 | 1007.2 |
| 20260503181738 | 62 | 181 | 7.8 | 23.5 | 0.00 | 0.00 | 0.00 | 49 | 1007.4 |
| 20260503181459 | 62 | 209 | 7.0 | 13.9 | 0.00 | 0.00 | 0.00 | 50 | 1007.4 |
| 20260503180738 | 61 | 194 | 7.8 | 15.6 | 0.00 | 0.00 | 0.00 | 51 | 1007.5 |
| 20260503180238 | 61 | 192 | 8.7 | 15.6 | 0.00 | 0.00 | 0.00 | 51 | 1007.6 |
| 20260503175739 | 60 | 171 | 7.8 | 13.0 | 0.00 | 0.00 | 0.00 | 52 | 1007.6 |
| 20260503175239 | 60 | 176 | 7.8 | 16.5 | 0.00 | 0.00 | 0.00 | 53 | 1007.8 |
| 20260503175218 | 59 | 182 | 8.7 | 18.2 | 0.00 | 0.00 | 0.00 | 53 | 1007.9 |
| 20260503174234 | 59 | 177 | 9.6 | 18.2 | 0.00 | 0.00 | 0.00 | 53 | 1007.6 |
| 20260503173733 | 59 | 177 | 8.7 | 13.9 | 0.00 | 0.00 | 0.00 | 53 | 1008.0 |
| 20260503173233 | 59 | 197 | 7.0 | 13.0 | 0.00 | 0.00 | 0.00 | 53 | 1008.2 |
| 20260503172734 | 58 | 209 | 6.1 | 10.4 | 0.00 | 0.00 | 0.00 | 54 | 1008.3 |
| 20260503172234 | 57 | 141 | 7.0 | 13.0 | 0.00 | 0.00 | 0.00 | 57 | 1008.5 |
| 20260503171733 | 57 | 190 | 7.0 | 13.0 | 0.00 | 0.00 | 0.00 | 55 | 1008.3 |
| 20260503171236 | 57 | 160 | 7.0 | 13.0 | 0.00 | 0.00 | 0.00 | 56 | 1008.5 |
| 20260503170734 | 56 | 124 | 7.0 | 13.0 | 0.00 | 0.00 | 0.00 | 58 | 1008.6 |
| 20260503170234 | 57 | 174 | 6.1 | 13.9 | 0.00 | 0.00 | 0.00 | 58 | 1008.8 |
| 20260503150725 | 58 | 181 | 7.0 | 15.6 | 0.00 | 0.00 | 0.00 | 53 | 1009.8 |
| 20260503150225 | 58 | 197 | 7.0 | 15.6 | 0.00 | 0.00 | 0.00 | 51 | 1009.9 |
| 20260503140220 | 56 | 251 | 7.8 | 12.2 | 0.00 | 0.00 | 0.00 | 53 | 1010.5 |
| 20260503131218 | 53 | 240 | 4.3 | 9.6 | 0.00 | 0.00 | 0.00 | 55 | 1010.9 |
| 20260503130718 | 52 | 254 | 5.2 | 9.6 | 0.00 | 0.00 | 0.00 | 54 | 1010.9 |
| 20260503130219 | 52 | 252 | 6.1 | 13.0 | 0.00 | 0.00 | 0.00 | 54 | 1010.9 |
| 20260503120215 | 51 | 184 | 4.3 | 8.7 | 0.00 | 0.00 | 0.00 | 53 | 1011.1 |
| 20260503110714 | 49 | 260 | 4.3 | 10.4 | 0.00 | 0.00 | 0.00 | 52 | 1010.8 |
| 20260503110216 | 49 | 204 | 3.5 | 10.4 | 0.00 | 0.00 | 0.00 | 52 | 1010.9 |
| 20260503100207 | 49 | 242 | 5.2 | 7.8 | 0.00 | 0.00 | 0.00 | 52 | 1011.2 |
| 20260503090156 | 49 | 217 | 5.2 | 9.6 | 0.00 | 0.00 | 0.00 | 49 | 1011.7 |
| 20260503081422 | 50 | 210 | 5.2 | 8.7 | 0.00 | 0.00 | 0.00 | 49 | 1012.1 |
| 20260503080656 | 50 | 176 | 4.3 | 7.8 | 0.00 | 0.00 | 0.00 | 49 | 1012.2 |
| 20260503080156 | 50 | 201 | 4.3 | 7.8 | 0.00 | 0.00 | 0.00 | 49 | 1012.2 |
| 20260503072645 | 49 | 203 | 4.3 | 8.7 | 0.00 | 0.00 | 0.00 | 49 | 1012.3 |
| 20260503072141 | 49 | 235 | 5.2 | 8.7 | 0.00 | 0.00 | 0.00 | 49 | 1012.4 |
| 20260503071636 | 49 | 262 | 4.3 | 8.7 | 0.00 | 0.00 | 0.00 | 49 | 1012.3 |
| 20260503071134 | 49 | 202 | 4.3 | 7.8 | 0.00 | 0.00 | 0.00 | 49 | 1012.4 |
| 20260503070859 | 49 | 246 | 5.2 | 9.6 | 0.00 | 0.00 | 0.00 | 50 | 1012.5 |
| 20260503070134 | 49 | 180 | 5.2 | 9.6 | 0.00 | 0.00 | 0.00 | 49 | 1012.5 |
| 20260503060134 | 49 | 217 | 3.5 | 7.8 | 0.00 | 0.00 | 0.00 | 50 | 1013.0 |
| 20260503054633 | 48 | 204 | 3.5 | 6.1 | 0.00 | 0.00 | 0.00 | 51 | 1013.1 |
| 20260503054133 | 48 | 192 | 3.5 | 7.0 | 0.00 | 0.00 | 0.00 | 52 | 1013.1 |
| 20260503053852 | 48 | 173 | 3.5 | 7.8 | 0.00 | 0.00 | 0.00 | 52 | 1013.2 |
| 20260503053132 | 48 | 183 | 3.5 | 8.7 | 0.00 | 0.00 | 0.00 | 51 | 1013.2 |
| 20260503052851 | 48 | 198 | 3.5 | 8.7 | 0.00 | 0.00 | 0.00 | 52 | 1013.2 |
| 20260503052404 | 48 | 168 | 3.5 | 7.8 | 0.00 | 0.00 | 0.00 | 52 | 1013.2 |
| 20260503051633 | 47 | 157 | 2.6 | 7.8 | 0.00 | 0.00 | 0.00 | 53 | 1013.3 |
| 20260503051129 | 47 | 210 | 2.6 | 5.2 | 0.00 | 0.00 | 0.00 | 55 | 1013.3 |
| 20260503050629 | 47 | 268 | 2.6 | 5.2 | 0.00 | 0.00 | 0.00 | 56 | 1013.4 |
| 20260503050129 | 46 | 188 | 2.6 | 5.2 | 0.00 | 0.00 | 0.00 | 57 | 1013.4 |
| 20260503045629 | 46 | 170 | 2.6 | 5.2 | 0.00 | 0.00 | 0.00 | 58 | 1013.4 |
| 20260503045129 | 45 | 264 | 2.6 | 5.2 | 0.00 | 0.00 | 0.00 | 62 | 1013.4 |
| 20260503044856 | 45 | 163 | 2.6 | 4.3 | 0.00 | 0.00 | 0.00 | 63 | 1013.5 |
| 20260503044354 | 45 | 173 | 2.6 | 4.3 | 0.00 | 0.00 | 0.00 | 64 | 1013.5 |
| 20260503043629 | 44 | 176 | 1.7 | 3.5 | 0.00 | 0.00 | 0.00 | 67 | 1013.5 |
| 20260503043129 | 44 | 163 | 1.7 | 4.3 | 0.00 | 0.00 | 0.00 | 68 | 1013.6 |
| 20260503042630 | 44 | 163 | 2.6 | 4.3 | 0.00 | 0.00 | 0.00 | 69 | 1013.6 |
| 20260503042129 | 42 | 171 | 2.6 | 4.3 | 0.00 | 0.00 | 0.00 | 70 | 1013.7 |
| 20260503041629 | 41 | 180 | 1.7 | 3.5 | 0.00 | 0.00 | 0.00 | 75 | 1013.7 |
| 20260503041127 | 41 | 196 | 1.7 | 2.6 | 0.00 | 0.00 | 0.00 | 77 | 1013.8 |
| 20260503040623 | 40 | 201 | 0.9 | 2.6 | 0.00 | 0.00 | 0.00 | 79 | 1013.8 |
| 20260503040124 | 40 | 190 | 0.9 | 1.7 | 0.00 | 0.00 | 0.00 | 79 | 1013.8 |
| 20260503035627 | 40 | 139 | 0.9 | 1.7 | 0.00 | 0.00 | 0.00 | 78 | 1013.9 |
| 20260503035125 | 40 | 275 | 0.9 | 1.7 | 0.00 | 0.00 | 0.00 | 77 | 1013.9 |
| 20260503034626 | 41 | 178 | 0.9 | 1.7 | 0.00 | 0.00 | 0.00 | 76 | 1013.9 |
| 20260503034125 | 41 | 275 | 0.9 | 1.7 | 0.00 | 0.00 | 0.00 | 76 | 1014.0 |
| 20260503033626 | 42 | 171 | 1.7 | 1.7 | 0.00 | 0.00 | 0.00 | 75 | 1014.0 |
| 20260503033125 | 42 | 184 | 1.7 | 3.5 | 0.00 | 0.00 | 0.00 | 73 | 1014.0 |
| 20260503032835 | 43 | 115 | 2.6 | 4.3 | 0.00 | 0.00 | 0.00 | 71 | 1014.1 |
| 20260503032716 | 43 | 189 | 2.6 | 4.3 | 0.00 | 0.00 | 0.00 | 72 | 1014.1 |
| 20260503031623 | 43 | 179 | 2.6 | 4.3 | 0.00 | 0.00 | 0.00 | 71 | 1014.1 |
| 20260503031123 | 43 | 152 | 2.6 | 4.3 | 0.00 | 0.00 | 0.00 | 71 | 1014.2 |
| 20260503030623 | 43 | 159 | 2.6 | 3.5 | 0.00 | 0.00 | 0.00 | 71 | 1014.3 |
| 20260503030123 | 43 | 164 | 2.6 | 3.5 | 0.00 | 0.00 | 0.00 | 71 | 1014.3 |
| 20260503025623 | 44 | 163 | 2.6 | 5.2 | 0.00 | 0.00 | 0.00 | 70 | 1014.4 |
| 20260503025124 | 44 | 155 | 3.5 | 5.2 | 0.00 | 0.00 | 0.00 | 69 | 1014.4 |
| 20260503025108 | 44 | 155 | 3.5 | 5.2 | 0.00 | 0.00 | 0.00 | 69 | 1014.4 |
| 20260503024124 | 44 | 146 | 3.5 | 5.2 | 0.00 | 0.00 | 0.00 | 68 | 1014.4 |
| 20260503023623 | 44 | 144 | 3.5 | 5.2 | 0.00 | 0.00 | 0.00 | 68 | 1014.4 |
| 20260503023124 | 44 | 144 | 2.6 | 5.2 | 0.00 | 0.00 | 0.00 | 68 | 1014.4 |
| 20260503022624 | 44 | 151 | 2.6 | 4.3 | 0.00 | 0.00 | 0.00 | 68 | 1014.4 |
| 20260503022124 | 44 | 150 | 1.7 | 4.3 | 0.00 | 0.00 | 0.00 | 68 | 1014.4 |
| 20260503021626 | 44 | 356 | 1.7 | 3.5 | 0.00 | 0.00 | 0.00 | 68 | 1014.4 |
| 20260503021119 | 45 | 196 | 2.6 | 5.2 | 0.00 | 0.00 | 0.00 | 67 | 1014.4 |
| 20260503020622 | 45 | 160 | 3.5 | 5.2 | 0.00 | 0.00 | 0.00 | 65 | 1014.4 |
| 20260503020119 | 45 | 187 | 3.5 | 5.2 | 0.00 | 0.00 | 0.00 | 65 | 1014.3 |
| 20260503015846 | 45 | 154 | 4.3 | 6.1 | 0.00 | 0.00 | 0.00 | 64 | 1014.3 |
| 20260503015120 | 46 | 150 | 4.3 | 6.1 | 0.00 | 0.00 | 0.00 | 64 | 1014.3 |
| 20260503014846 | 46 | 152 | 4.3 | 6.1 | 0.00 | 0.00 | 0.00 | 63 | 1014.2 |
| 20260503014120 | 46 | 151 | 4.3 | 6.1 | 0.00 | 0.00 | 0.00 | 63 | 1014.2 |
| 20260503013620 | 46 | 181 | 3.5 | 6.1 | 0.00 | 0.00 | 0.00 | 63 | 1014.2 |
| 20260503013120 | 46 | 175 | 3.5 | 6.1 | 0.00 | 0.00 | 0.00 | 62 | 1014.2 |
| 20260503012620 | 46 | 163 | 3.5 | 6.1 | 0.00 | 0.00 | 0.00 | 62 | 1014.2 |
| 20260503012121 | 47 | 142 | 3.5 | 5.2 | 0.00 | 0.00 | 0.00 | 62 | 1014.2 |
| 20260503011622 | 47 | 141 | 3.5 | 6.1 | 0.00 | 0.00 | 0.00 | 61 | 1014.2 |
| 20260503011121 | 47 | 146 | 3.5 | 6.1 | 0.00 | 0.00 | 0.00 | 61 | 1014.2 |
| 20260503010841 | 47 | 158 | 4.3 | 7.0 | 0.00 | 0.00 | 0.00 | 60 | 1014.2 |
| 20260503010121 | 47 | 153 | 4.3 | 7.8 | 0.00 | 0.00 | 0.00 | 59 | 1014.2 |
| 20260503005842 | 47 | 132 | 4.3 | 7.8 | 0.00 | 0.00 | 0.00 | 59 | 1014.2 |
| 20260503005119 | 48 | 125 | 4.3 | 7.8 | 0.00 | 0.00 | 0.00 | 58 | 1014.2 |
| 20260503004619 | 48 | 184 | 4.3 | 7.0 | 0.00 | 0.00 | 0.00 | 58 | 1014.2 |
| 20260503004120 | 48 | 294 | 4.3 | 7.8 | 0.00 | 0.00 | 0.00 | 57 | 1014.2 |
| 20260503003620 | 49 | 169 | 5.2 | 11.3 | 0.00 | 0.00 | 0.00 | 56 | 1014.2 |
| 20260503003119 | 49 | 181 | 5.2 | 11.3 | 0.00 | 0.00 | 0.00 | 55 | 1014.2 |
| 20260503002620 | 49 | 168 | 4.3 | 8.7 | 0.00 | 0.00 | 0.00 | 54 | 1014.2 |
| 20260503002119 | 49 | 145 | 5.2 | 8.7 | 0.00 | 0.00 | 0.00 | 54 | 1014.3 |
| 20260503001619 | 50 | 182 | 5.2 | 9.6 | 0.00 | 0.00 | 0.00 | 53 | 1014.3 |
| 20260503001333 | 50 | 154 | 6.1 | 9.6 | 0.00 | 0.00 | 0.00 | 52 | 1014.3 |
| 20260503000614 | 50 | 135 | 6.1 | 9.6 | 0.00 | 0.00 | 0.00 | 52 | 1014.3 |
| 20260503000114 | 50 | 139 | 5.2 | 9.6 | 0.00 | 0.00 | 0.00 | 51 | 1014.4 |
| 20260502235938 | 50 | 119 | 5.2 | 9.6 | 0.00 | 0.00 | 0.00 | 51 | 1014.3 |
| 20260502235900 | 50 | 303 | 6.1 | 9.6 | 0.00 | 0.00 | 0.00 | 51 | 1014.4 |
| 20260502234616 | 50 | 125 | 5.2 | 8.7 | 0.00 | 0.00 | 0.00 | 50 | 1014.4 |
| 20260502234114 | 51 | 127 | 5.2 | 8.7 | 0.00 | 0.00 | 0.00 | 51 | 1014.5 |
| 20260502233615 | 51 | 127 | 5.2 | 8.7 | 0.00 | 0.00 | 0.00 | 50 | 1014.6 |
| 20260502233114 | 51 | 193 | 5.2 | 8.7 | 0.00 | 0.00 | 0.00 | 49 | 1014.6 |
| 20260502232615 | 51 | 145 | 6.1 | 10.4 | 0.00 | 0.00 | 0.00 | 49 | 1014.7 |
| 20260502232115 | 51 | 149 | 6.1 | 10.4 | 0.00 | 0.00 | 0.00 | 49 | 1014.7 |
| 20260502231610 | 51 | 132 | 5.2 | 10.4 | 0.00 | 0.00 | 0.00 | 49 | 1014.7 |
| 20260502231111 | 52 | 124 | 6.1 | 11.3 | 0.00 | 0.00 | 0.00 | 48 | 1014.7 |
| 20260502230613 | 52 | 141 | 6.1 | 11.3 | 0.00 | 0.00 | 0.00 | 48 | 1014.6 |
| 20260502230114 | 51 | 141 | 5.2 | 7.8 | 0.00 | 0.00 | 0.00 | 49 | 1014.8 |
| 20260502225612 | 51 | 181 | 5.2 | 7.8 | 0.00 | 0.00 | 0.00 | 49 | 1014.9 |
| 20260502225112 | 51 | 124 | 5.2 | 9.6 | 0.00 | 0.00 | 0.00 | 49 | 1014.9 |
| 20260502224614 | 51 | 165 | 5.2 | 9.6 | 0.00 | 0.00 | 0.00 | 49 | 1015.0 |
| 20260502224115 | 52 | 116 | 4.3 | 9.6 | 0.00 | 0.00 | 0.00 | 47 | 1014.9 |
| 20260502223612 | 51 | 111 | 5.2 | 11.3 | 0.00 | 0.00 | 0.00 | 49 | 1015.0 |
| 20260502223113 | 51 | 127 | 5.2 | 11.3 | 0.00 | 0.00 | 0.00 | 49 | 1015.1 |
| 20260502222614 | 51 | 155 | 6.1 | 10.4 | 0.00 | 0.00 | 0.00 | 48 | 1015.1 |
| 20260502222113 | 51 | 131 | 6.1 | 10.4 | 0.00 | 0.00 | 0.00 | 48 | 1015.1 |
| 20260502221610 | 52 | 141 | 6.1 | 10.4 | 0.00 | 0.00 | 0.00 | 49 | 1015.0 |
| 20260502221106 | 52 | 125 | 5.2 | 9.6 | 0.00 | 0.00 | 0.00 | 48 | 1015.1 |